Location: Tucson
(32.2217°N, 110.9265°W)
Time: 03:05:23
(UTC-07:00)

Tiros 1 - Pass Details

Date: 03 November 2021
Orbit: 630 x 663 km, 48.4° (Epoch: 07 December)

Event Time Altitude Azimuth Distance (km) Brightness Sun altitude
Rises 07:37:52 0° 276° (W) 2,988 10.0 10.0°
Reaches altitude 10° 07:40:53 10° 296° (WNW) 2,076 9.2 10.6°
Maximum altitude 07:44:11 18° 339° (NNW) 1,603 8.8 11.2°
Drops below altitude 10° 07:47:29 10° 23° (NNE) 2,074 9.8 11.8°
Sets 07:50:31 0° 42° (NE) 2,983 10.8 12.4°
